Location: Unspecified
(45.4615°N, 74.0512°W)
Time: 07:25:45
(UTC-04:00)

Okean 3 - Visible Passes

Search period start: 20 June 2018 00:00
Search period end: 30 June 2018 00:00
Orbit: 576 x 603 km, 82.5° (Epoch: 19 June)

Date Brightness Start Highest point End Pass type
(mag) Time Alt. Az. Time Alt. Az. Time Alt. Az.
20 Jun 4.8 03:50:10 10° N 03:54:08 40° ENE 03:58:05 10° SSE visible
21 Jun 4.0 03:58:06 10° N 04:02:16 59° E 04:06:25 10° SSE visible
22 Jun 3.5 04:06:08 10° N 04:10:21 89° ENE 04:14:34 10° S visible
23 Jun 6.3 02:38:41 10° NE 02:40:43 13° ENE 02:42:45 10° E visible
23 Jun 3.5 04:14:15 10° NNW 04:18:23 61° W 04:22:33 10° S visible
24 Jun 6.0 02:45:59 10° NNE 02:48:58 19° ENE 02:51:58 10° ESE visible
24 Jun 4.0 04:22:28 10° NNW 04:26:25 40° W 04:30:22 10° SSW visible
25 Jun 5.5 02:53:37 10° NNE 02:57:11 26° ENE 03:00:45 10° SE visible
25 Jun 4.5 04:30:48 10° NNW 04:34:24 28° W 04:37:59 10° SSW visible
26 Jun 4.8 03:01:25 10° N 03:05:21 37° ENE 03:09:18 10° SE visible
27 Jun 4.1 03:09:20 10° N 03:13:29 56° E 03:17:38 10° SSE visible
28 Jun 3.5 03:17:20 10° N 03:21:35 84° E 03:25:24 13° S visible
29 Jun 6.2 01:50:03 10° NE 01:51:55 13° ENE 01:53:46 10° E visible
29 Jun 3.5 03:25:26 10° NNW 03:29:38 65° W 03:32:56 16° S visible
